Location: Trebic
(49.2170°N, 15.8830°E)
Time: 20:49:07
(UTC+02:00)

Courier 1B Rocket - Pass Details

Date: 28 August 2019
Orbit: 920 x 1202 km, 28.2° (Epoch: 14 October)

Event Time Altitude Azimuth Distance (km) Brightness Sun altitude
Rises 02:10:41 0° 211° (SSW) 3,751 - -28.8°
Reaches altitude 10° 02:17:00 10° 169° (S) 2,900 - -28.4°
Maximum altitude 02:17:27 10° 165° (SSE) 2,902 - -28.4°
Drops below altitude 10° 02:17:56 10° 161° (SSE) 2,914 - -28.3°
Exits shadow 02:22:37 - 129° (SE) 3,531 7.8 -28.0°
Sets 02:24:33 0° 120° (ESE) 3,970 8.1 -27.9°
